Location: Foots Cray
(51.4000°N, 0.1167°E)
Time: 02:23:23
(UTC+00:00)

USA 290 - Pass Details

Date: 15 May 2026
Orbit: 396 x 415 km, 73.6° (Epoch: 30 October)

Event Time Altitude Azimuth Distance (km) Brightness Sun altitude
Exits shadow 21:18:07 20° 151° (SSE) 983 3.5 -11.6°
Maximum altitude 21:19:32 29° 107° (ESE) 757 3.1 -11.7°
Drops below altitude 10° 21:22:19 10° 45° (NE) 1,435 5.1 -12.0°
Sets 21:24:29 0° 34° (NE) 2,295 6.3 -12.2°
